Terug naar catalogus

LEMUR 2 FURIAUS

ActiefWetenschapSSO
NORAD 42840·PAYLOAD·🇺🇸 United States

Gelanceerd Jul 14, 2017 vanaf Baikonur Cosmodrome

Loading…

Volgende Passages (komende 24 uur)

TLE

VersSource: Space-Track

Epoch: Sep 14, 2026, 10:56 UTC

1 42840U 17042R   26257.45615886  .00014434  00000-0  45534-3 0  9997
2 42840  97.3808  75.6284 0007939 102.2610 257.9521 15.32939575501878

Volg LEMUR 2 FURIAUS in realtime met AllMySat

Download on the App Store